GEFSMW_prec_meanprecacc_018.txt.gz
Total_Precipitation_Accumulation
0.01 0.04 0.12 0.25 0.36 0.68 0.86 0.58 0.28 0.15 0.06 0.05 0.06 0.04 0.02 0.02 0.03 0.03 0.04 0.07 0.10 0.12 0.11 0.08 0.10 0.09 0.09 0.08 0.07 0.07 0.07 0.06 0.04 0.04 0.02 0.01 0.01 0.01 0.01 0.01 0.01 0.01 0.01
0.01 0.02 0.06 0.12 0.20 0.31 0.36 0.34 0.29 0.26 0.13 0.09 0.09 0.10 0.08 0.07 0.08 0.11 0.18 0.22 0.19 0.13 0.10 0.09 0.06 0.06 0.06 0.06 0.06 0.04 0.03 0.02 0.01 0.02 0.02 0.00 0.00 0.00 0.00 0.00 0.00 0.00 0.00
0.01 0.01 0.04 0.08 0.12 0.16 0.19 0.20 0.21 0.21 0.13 0.08 0.08 0.12 0.16 0.18 0.23 0.29 0.33 0.28 0.19 0.12 0.08 0.05 0.04 0.03 0.02 0.03 0.03 0.03 0.04 0.03 0.01 0.01 0.02 0.02 0.01 0.00 0.00 0.00 0.00 0.00 0.00
0.01 0.01 0.03 0.06 0.08 0.09 0.08 0.07 0.10 0.11 0.10 0.08 0.08 0.14 0.21 0.25 0.26 0.20 0.18 0.13 0.07 0.05 0.03 0.02 0.01 0.01 0.01 0.01 0.01 0.02 0.02 0.02 0.01 0.00 0.00 0.01 0.01 0.02 0.01 0.00 0.00 0.00 0.00
0.02 0.02 0.03 0.05 0.07 0.07 0.05 0.05 0.05 0.05 0.04 0.05 0.06 0.10 0.10 0.08 0.05 0.04 0.02 0.02 0.01 0.00 0.00 0.00 0.01 0.01 0.01 0.01 0.01 0.01 0.01 0.01 0.01 0.01 0.00 0.00 0.00 0.01 0.02 0.01 0.00 0.00 0.00
0.02 0.02 0.03 0.05 0.05 0.05 0.04 0.03 0.03 0.02 0.01 0.01 0.01 0.01 0.01 0.01 0.00 0.00 0.00 0.00 0.00 0.00 0.00 0.00 0.00 0.01 0.01 0.01 0.01 0.01 0.01 0.01 0.01 0.01 0.01 0.02 0.02 0.02 0.02 0.03 0.01 0.01 0.00
0.02 0.02 0.04 0.04 0.03 0.02 0.01 0.01 0.01 0.00 0.00 0.00 0.00 0.00 0.00 0.00 0.00 0.00 0.00 0.00 0.00 0.00 0.00 0.00 0.00 0.00 0.01 0.00 0.00 0.00 0.01 0.01 0.02 0.02 0.02 0.02 0.02 0.03 0.04 0.05 0.04 0.03 0.01
0.02 0.03 0.04 0.03 0.02 0.01 0.01 0.00 0.00 0.00 0.00 0.00 0.00 0.00 0.00 0.00 0.00 0.00 0.00 0.00 0.00 0.00 0.00 0.00 0.00 0.00 0.00 0.01 0.01 0.01 0.01 0.01 0.02 0.02 0.03 0.03 0.03 0.05 0.06 0.10 0.12 0.10 0.06
0.04 0.05 0.04 0.03 0.02 0.01 0.00 0.00 0.00 0.00 0.00 0.00 0.00 0.00 0.00 0.00 0.00 0.00 0.00 0.00 0.00 0.00 0.00 0.00 0.01 0.02 0.02 0.02 0.02 0.02 0.02 0.03 0.03 0.03 0.03 0.04 0.05 0.06 0.07 0.08 0.11 0.14 0.13
0.07 0.07 0.04 0.03 0.02 0.01 0.00 0.00 0.00 0.00 0.00 0.00 0.00 0.00 0.00 0.00 0.00 0.00 0.00 0.00 0.01 0.01 0.01 0.02 0.03 0.03 0.03 0.03 0.03 0.03 0.04 0.04 0.04 0.05 0.05 0.05 0.05 0.05 0.06 0.07 0.09 0.14 0.19
0.09 0.08 0.05 0.04 0.03 0.01 0.00 0.00 0.00 0.00 0.00 0.00 0.00 0.00 0.00 0.00 0.00 0.00 0.01 0.01 0.01 0.02 0.03 0.03 0.03 0.03 0.02 0.02 0.03 0.05 0.05 0.04 0.03 0.03 0.03 0.03 0.03 0.04 0.05 0.07 0.08 0.10 0.15
0.09 0.07 0.05 0.04 0.02 0.01 0.01 0.01 0.00 0.00 0.00 0.00 0.00 0.00 0.00 0.01 0.01 0.01 0.01 0.02 0.02 0.03 0.03 0.03 0.03 0.02 0.02 0.03 0.04 0.04 0.03 0.03 0.02 0.02 0.03 0.03 0.04 0.04 0.04 0.06 0.07 0.09 0.13
0.06 0.05 0.04 0.03 0.02 0.02 0.02 0.01 0.01 0.00 0.00 0.00 0.00 0.00 0.00 0.01 0.01 0.02 0.02 0.02 0.03 0.03 0.03 0.03 0.02 0.02 0.03 0.03 0.03 0.02 0.01 0.02 0.02 0.03 0.04 0.05 0.05 0.04 0.05 0.06 0.08 0.10 0.12
0.07 0.06 0.06 0.06 0.05 0.04 0.03 0.02 0.01 0.00 0.00 0.00 0.00 0.00 0.01 0.01 0.02 0.02 0.03 0.03 0.03 0.03 0.02 0.02 0.01 0.01 0.02 0.02 0.01 0.01 0.01 0.02 0.02 0.03 0.05 0.07 0.07 0.07 0.08 0.09 0.10 0.12 0.12
0.12 0.13 0.14 0.11 0.08 0.05 0.02 0.01 0.00 0.00 0.00 0.00 0.01 0.01 0.01 0.01 0.02 0.03 0.03 0.02 0.01 0.01 0.01 0.01 0.01 0.01 0.01 0.00 0.00 0.00 0.00 0.01 0.02 0.03 0.06 0.07 0.07 0.10 0.10 0.09 0.09 0.10 0.11
0.23 0.20 0.14 0.08 0.05 0.02 0.01 0.00 0.00 0.00 0.00 0.01 0.01 0.01 0.01 0.01 0.02 0.02 0.01 0.01 0.01 0.01 0.01 0.01 0.01 0.01 0.00 0.00 0.00 0.00 0.00 0.01 0.02 0.04 0.05 0.03 0.02 0.03 0.03 0.05 0.07 0.10 0.12
0.20 0.13 0.07 0.03 0.01 0.00 0.00 0.00 0.00 0.00 0.00 0.01 0.01 0.01 0.00 0.01 0.01 0.00 0.00 0.01 0.01 0.01 0.01 0.01 0.01 0.01 0.01 0.00 0.00 0.00 0.00 0.01 0.02 0.04 0.03 0.01 0.01 0.01 0.01 0.03 0.06 0.10 0.16
0.11 0.06 0.04 0.02 0.01 0.00 0.00 0.00 0.00 0.00 0.00 0.00 0.00 0.00 0.00 0.00 0.00 0.00 0.01 0.01 0.01 0.01 0.01 0.01 0.01 0.01 0.01 0.00 0.00 0.00 0.00 0.01 0.02 0.02 0.02 0.02 0.01 0.02 0.03 0.05 0.11 0.13 0.15
0.09 0.06 0.04 0.02 0.01 0.00 0.00 0.00 0.00 0.00 0.00 0.00 0.00 0.00 0.00 0.00 0.00 0.01 0.01 0.01 0.01 0.01 0.01 0.01 0.01 0.01 0.01 0.00 0.00 0.00 0.00 0.00 0.01 0.01 0.01 0.02 0.01 0.03 0.06 0.09 0.14 0.17 0.24
0.08 0.07 0.05 0.02 0.01 0.00 0.00 0.00 0.00 0.00 0.00 0.00 0.00 0.00 0.00 0.00 0.01 0.01 0.01 0.01 0.01 0.01 0.00 0.01 0.01 0.01 0.00 0.00 0.00 0.00 0.00 0.00 0.00 0.01 0.01 0.02 0.03 0.05 0.07 0.11 0.17 0.25 0.35
0.09 0.08 0.05 0.01 0.00 0.00 0.00 0.00 0.00 0.00 0.00 0.00 0.00 0.00 0.00 0.00 0.00 0.00 0.01 0.01 0.01 0.00 0.00 0.00 0.01 0.01 0.00 0.00 0.00 0.01 0.01 0.01 0.01 0.01 0.02 0.03 0.08 0.07 0.08 0.15 0.25 0.38 0.47
0.10 0.06 0.02 0.00 0.00 0.00 0.00 0.00 0.01 0.00 0.00 0.00 0.00 0.00 0.00 0.00 0.00 0.00 0.00 0.00 0.00 0.00 0.00 0.00 0.00 0.00 0.00 0.00 0.00 0.00 0.01 0.02 0.03 0.05 0.07 0.10 0.13 0.09 0.12 0.23 0.38 0.49 0.56
0.07 0.03 0.01 0.00 0.00 0.00 0.00 0.00 0.00 0.00 0.00 0.00 0.00 0.00 0.00 0.00 0.00 0.00 0.00 0.00 0.00 0.00 0.00 0.00 0.00 0.00 0.00 0.01 0.01 0.00 0.01 0.02 0.04 0.08 0.15 0.17 0.13 0.15 0.23 0.39 0.53 0.56 0.55
0.01 0.00 0.00 0.00 0.00 0.00 0.00 0.00 0.00 0.00 0.00 0.00 0.00 0.00 0.00 0.00 0.00 0.00 0.00 0.00 0.00 0.00 0.00 0.00 0.01 0.01 0.01 0.01 0.02 0.02 0.02 0.03 0.04 0.06 0.13 0.16 0.16 0.25 0.40 0.53 0.57 0.59 0.60
0.00 0.00 0.00 0.00 0.00 0.00 0.00 0.00 0.00 0.00 0.00 0.00 0.00 0.00 0.00 0.00 0.00 0.00 0.00 0.00 0.00 0.00 0.00 0.01 0.01 0.02 0.03 0.03 0.03 0.04 0.05 0.06 0.07 0.07 0.09 0.10 0.14 0.27 0.41 0.52 0.55 0.55 0.57
0.00 0.00 0.00 0.00 0.00 0.00 0.00 0.00 0.00 0.00 0.00 0.00 0.00 0.00 0.00 0.00 0.00 0.00 0.00 0.00 0.00 0.00 0.00 0.01 0.02 0.02 0.03 0.02 0.02 0.03 0.05 0.07 0.09 0.09 0.13 0.17 0.23 0.31 0.41 0.50 0.57 0.55 0.49

GEFSMW_prec_meanprecacc_024.txt.gz
Total_Precipitation_Accumulation
0.02 0.05 0.14 0.30 0.41 0.75 0.94 0.65 0.36 0.23 0.12 0.10 0.10 0.07 0.04 0.03 0.03 0.03 0.04 0.07 0.10 0.12 0.11 0.08 0.10 0.09 0.09 0.08 0.07 0.07 0.07 0.07 0.05 0.05 0.03 0.02 0.01 0.01 0.01 0.01 0.01 0.01 0.01
0.02 0.04 0.10 0.19 0.31 0.45 0.50 0.50 0.45 0.39 0.23 0.17 0.15 0.13 0.10 0.07 0.08 0.11 0.18 0.22 0.19 0.13 0.10 0.09 0.06 0.06 0.06 0.06 0.06 0.05 0.03 0.03 0.02 0.03 0.02 0.01 0.00 0.00 0.00 0.00 0.00 0.00 0.00
0.02 0.03 0.08 0.17 0.27 0.34 0.39 0.43 0.43 0.40 0.27 0.18 0.14 0.15 0.17 0.19 0.23 0.29 0.33 0.28 0.19 0.12 0.08 0.05 0.04 0.03 0.02 0.03 0.03 0.03 0.04 0.03 0.01 0.01 0.02 0.02 0.01 0.00 0.00 0.00 0.00 0.00 0.00
0.02 0.03 0.07 0.14 0.24 0.31 0.33 0.32 0.34 0.31 0.26 0.17 0.13 0.17 0.23 0.26 0.27 0.21 0.18 0.13 0.07 0.05 0.03 0.02 0.01 0.01 0.01 0.01 0.01 0.02 0.02 0.02 0.01 0.00 0.01 0.01 0.01 0.02 0.01 0.00 0.00 0.00 0.00
0.02 0.03 0.06 0.12 0.22 0.27 0.27 0.28 0.26 0.22 0.17 0.14 0.12 0.14 0.12 0.09 0.05 0.04 0.02 0.02 0.01 0.00 0.00 0.00 0.01 0.01 0.01 0.01 0.01 0.01 0.01 0.01 0.01 0.01 0.01 0.01 0.01 0.02 0.03 0.02 0.01 0.00 0.00
0.02 0.03 0.06 0.11 0.15 0.18 0.20 0.21 0.17 0.14 0.10 0.08 0.05 0.03 0.02 0.01 0.00 0.00 0.00 0.00 0.00 0.00 0.00 0.00 0.00 0.01 0.01 0.01 0.01 0.01 0.01 0.01 0.01 0.01 0.01 0.02 0.02 0.02 0.03 0.03 0.02 0.01 0.00
0.02 0.04 0.07 0.09 0.11 0.12 0.12 0.11 0.09 0.07 0.05 0.03 0.01 0.01 0.00 0.00 0.00 0.00 0.00 0.00 0.00 0.00 0.00 0.00 0.00 0.00 0.01 0.01 0.01 0.01 0.01 0.01 0.02 0.02 0.02 0.02 0.02 0.03 0.04 0.06 0.05 0.03 0.01
0.03 0.05 0.07 0.07 0.08 0.08 0.07 0.05 0.04 0.03 0.02 0.01 0.01 0.00 0.00 0.00 0.00 0.00 0.00 0.00 0.00 0.00 0.00 0.00 0.00 0.00 0.01 0.01 0.01 0.01 0.01 0.01 0.02 0.02 0.03 0.04 0.03 0.05 0.06 0.10 0.12 0.11 0.06
0.05 0.07 0.07 0.07 0.07 0.05 0.04 0.03 0.03 0.02 0.01 0.01 0.00 0.00 0.00 0.00 0.00 0.00 0.00 0.00 0.00 0.00 0.00 0.00 0.01 0.02 0.02 0.02 0.03 0.02 0.02 0.03 0.03 0.04 0.04 0.04 0.05 0.06 0.07 0.09 0.11 0.15 0.14
0.08 0.08 0.07 0.06 0.05 0.04 0.04 0.04 0.03 0.02 0.01 0.00 0.00 0.00 0.00 0.00 0.00 0.00 0.00 0.01 0.01 0.01 0.01 0.02 0.03 0.03 0.03 0.03 0.03 0.03 0.04 0.05 0.05 0.06 0.06 0.06 0.05 0.06 0.06 0.07 0.09 0.15 0.21
0.10 0.09 0.07 0.06 0.06 0.05 0.05 0.04 0.03 0.02 0.01 0.01 0.01 0.01 0.00 0.00 0.00 0.00 0.01 0.01 0.01 0.02 0.03 0.03 0.03 0.03 0.02 0.02 0.04 0.05 0.05 0.05 0.04 0.04 0.04 0.04 0.04 0.05 0.05 0.07 0.09 0.11 0.17
0.09 0.07 0.06 0.05 0.05 0.05 0.05 0.05 0.04 0.03 0.03 0.02 0.01 0.00 0.00 0.01 0.01 0.01 0.01 0.02 0.02 0.03 0.03 0.03 0.03 0.02 0.02 0.03 0.04 0.04 0.03 0.03 0.03 0.03 0.04 0.04 0.04 0.05 0.05 0.06 0.08 0.10 0.15
0.06 0.05 0.05 0.05 0.06 0.07 0.06 0.06 0.05 0.04 0.02 0.01 0.00 0.00 0.00 0.01 0.01 0.02 0.02 0.02 0.03 0.03 0.04 0.03 0.03 0.02 0.03 0.04 0.03 0.03 0.02 0.03 0.03 0.04 0.04 0.05 0.06 0.05 0.05 0.07 0.09 0.11 0.15
0.07 0.07 0.08 0.09 0.09 0.09 0.08 0.06 0.04 0.02 0.01 0.00 0.00 0.00 0.01 0.01 0.02 0.02 0.03 0.03 0.03 0.03 0.02 0.02 0.02 0.02 0.03 0.02 0.02 0.01 0.02 0.02 0.03 0.04 0.06 0.07 0.07 0.07 0.09 0.10 0.12 0.15 0.16
0.13 0.16 0.17 0.15 0.12 0.10 0.07 0.05 0.03 0.02 0.01 0.00 0.01 0.01 0.01 0.01 0.02 0.03 0.03 0.02 0.02 0.01 0.01 0.01 0.01 0.02 0.02 0.01 0.00 0.00 0.01 0.01 0.02 0.03 0.06 0.07 0.07 0.11 0.12 0.11 0.12 0.16 0.17
0.27 0.27 0.22 0.16 0.11 0.09 0.08 0.05 0.04 0.02 0.01 0.01 0.01 0.01 0.01 0.01 0.02 0.02 0.01 0.01 0.01 0.01 0.01 0.01 0.01 0.01 0.01 0.00 0.00 0.00 0.00 0.01 0.02 0.04 0.05 0.03 0.03 0.03 0.04 0.07 0.10 0.14 0.17
0.27 0.21 0.16 0.12 0.11 0.11 0.09 0.07 0.04 0.02 0.01 0.01 0.01 0.01 0.00 0.01 0.01 0.00 0.00 0.01 0.01 0.01 0.01 0.01 0.01 0.01 0.01 0.00 0.00 0.00 0.00 0.01 0.03 0.05 0.03 0.02 0.01 0.02 0.03 0.05 0.08 0.12 0.17
0.16 0.14 0.12 0.13 0.14 0.14 0.11 0.07 0.04 0.02 0.01 0.01 0.00 0.00 0.00 0.00 0.00 0.00 0.01 0.01 0.01 0.01 0.01 0.01 0.01 0.01 0.01 0.00 0.00 0.00 0.00 0.01 0.03 0.03 0.03 0.03 0.02 0.03 0.05 0.07 0.12 0.14 0.16
0.14 0.14 0.16 0.19 0.19 0.16 0.10 0.05 0.03 0.01 0.00 0.00 0.00 0.00 0.00 0.00 0.00 0.01 0.01 0.01 0.01 0.01 0.01 0.01 0.01 0.01 0.01 0.00 0.00 0.00 0.01 0.01 0.01 0.02 0.02 0.04 0.03 0.05 0.08 0.11 0.16 0.19 0.25
0.13 0.19 0.24 0.25 0.21 0.14 0.08 0.05 0.02 0.01 0.00 0.00 0.00 0.00 0.00 0.00 0.01 0.01 0.01 0.01 0.01 0.01 0.00 0.01 0.01 0.01 0.01 0.00 0.00 0.01 0.01 0.01 0.01 0.01 0.01 0.03 0.05 0.06 0.09 0.14 0.20 0.27 0.38
0.20 0.26 0.27 0.24 0.17 0.09 0.04 0.02 0.01 0.01 0.00 0.00 0.00 0.00 0.00 0.00 0.00 0.00 0.01 0.01 0.01 0.00 0.00 0.01 0.01 0.01 0.01 0.01 0.00 0.01 0.02 0.03 0.03 0.03 0.03 0.05 0.10 0.10 0.11 0.19 0.29 0.43 0.53
0.26 0.27 0.25 0.18 0.11 0.05 0.02 0.01 0.01 0.00 0.00 0.00 0.00 0.00 0.00 0.00 0.00 0.00 0.00 0.00 0.00 0.00 0.00 0.00 0.01 0.01 0.01 0.01 0.00 0.00 0.01 0.03 0.04 0.07 0.09 0.13 0.17 0.14 0.18 0.29 0.45 0.59 0.67
0.28 0.24 0.18 0.12 0.06 0.02 0.01 0.01 0.01 0.00 0.00 0.00 0.00 0.00 0.00 0.00 0.00 0.00 0.00 0.00 0.00 0.00 0.00 0.00 0.01 0.01 0.01 0.01 0.01 0.01 0.01 0.03 0.05 0.10 0.19 0.23 0.21 0.25 0.33 0.50 0.64 0.69 0.67
0.17 0.11 0.06 0.03 0.02 0.01 0.00 0.00 0.00 0.00 0.00 0.00 0.00 0.00 0.00 0.00 0.00 0.00 0.00 0.00 0.00 0.00 0.01 0.01 0.02 0.02 0.02 0.02 0.03 0.03 0.03 0.05 0.05 0.08 0.18 0.26 0.29 0.40 0.54 0.64 0.68 0.69 0.71
0.04 0.02 0.02 0.01 0.00 0.00 0.00 0.00 0.00 0.00 0.00 0.00 0.00 0.00 0.00 0.00 0.00 0.00 0.00 0.00 0.01 0.01 0.01 0.02 0.03 0.04 0.05 0.04 0.04 0.05 0.07 0.08 0.09 0.10 0.14 0.18 0.26 0.40 0.53 0.62 0.64 0.63 0.64
0.01 0.01 0.01 0.00 0.00 0.00 0.00 0.00 0.00 0.00 0.00 0.00 0.00 0.00 0.00 0.00 0.00 0.00 0.00 0.00 0.00 0.00 0.01 0.02 0.03 0.04 0.05 0.04 0.03 0.04 0.06 0.09 0.12 0.13 0.20 0.28 0.35 0.44 0.53 0.60 0.64 0.61 0.54

GEFSMW_prec_meanprecacc_030.txt.gz
Total_Precipitation_Accumulation
0.02 0.05 0.14 0.32 0.44 0.78 0.96 0.67 0.37 0.24 0.14 0.11 0.11 0.09 0.05 0.04 0.05 0.04 0.04 0.07 0.10 0.12 0.11 0.08 0.10 0.09 0.09 0.08 0.07 0.07 0.07 0.07 0.05 0.05 0.03 0.02 0.02 0.01 0.01 0.01 0.01 0.01 0.01
0.02 0.04 0.11 0.25 0.37 0.50 0.55 0.54 0.49 0.43 0.26 0.19 0.18 0.18 0.13 0.11 0.11 0.13 0.19 0.22 0.19 0.13 0.10 0.09 0.06 0.06 0.06 0.06 0.06 0.05 0.03 0.03 0.02 0.03 0.02 0.01 0.00 0.00 0.00 0.00 0.00 0.00 0.00
0.02 0.04 0.11 0.23 0.33 0.39 0.46 0.50 0.51 0.49 0.35 0.25 0.22 0.23 0.23 0.23 0.27 0.32 0.34 0.29 0.20 0.12 0.08 0.05 0.04 0.03 0.02 0.03 0.03 0.03 0.04 0.03 0.01 0.01 0.02 0.02 0.01 0.00 0.00 0.00 0.00 0.00 0.00
0.02 0.03 0.08 0.16 0.27 0.38 0.41 0.43 0.48 0.49 0.44 0.34 0.26 0.28 0.32 0.32 0.32 0.24 0.20 0.15 0.08 0.05 0.03 0.02 0.02 0.01 0.01 0.01 0.01 0.02 0.02 0.02 0.01 0.00 0.01 0.01 0.02 0.02 0.01 0.00 0.00 0.00 0.00
0.02 0.03 0.06 0.13 0.26 0.34 0.36 0.41 0.45 0.44 0.39 0.33 0.28 0.26 0.22 0.16 0.11 0.08 0.05 0.03 0.01 0.01 0.01 0.01 0.01 0.01 0.01 0.01 0.01 0.01 0.01 0.01 0.01 0.01 0.01 0.01 0.01 0.02 0.03 0.02 0.01 0.00 0.00
0.02 0.04 0.06 0.12 0.19 0.23 0.28 0.33 0.34 0.33 0.29 0.25 0.22 0.17 0.14 0.11 0.08 0.05 0.03 0.02 0.01 0.00 0.00 0.00 0.00 0.01 0.01 0.01 0.01 0.01 0.01 0.01 0.02 0.01 0.01 0.02 0.02 0.02 0.03 0.03 0.02 0.01 0.00
0.02 0.04 0.07 0.10 0.13 0.15 0.17 0.19 0.20 0.20 0.18 0.14 0.11 0.10 0.09 0.07 0.04 0.03 0.02 0.01 0.00 0.00 0.00 0.00 0.00 0.00 0.01 0.01 0.01 0.01 0.01 0.01 0.02 0.02 0.02 0.02 0.02 0.03 0.04 0.06 0.05 0.03 0.01
0.03 0.05 0.07 0.08 0.10 0.09 0.09 0.09 0.10 0.10 0.09 0.07 0.07 0.06 0.04 0.03 0.02 0.02 0.01 0.01 0.00 0.00 0.00 0.00 0.00 0.00 0.01 0.01 0.01 0.01 0.01 0.02 0.03 0.03 0.04 0.04 0.04 0.05 0.07 0.10 0.12 0.11 0.06
0.05 0.07 0.08 0.08 0.07 0.05 0.05 0.06 0.07 0.07 0.06 0.06 0.05 0.03 0.02 0.02 0.02 0.02 0.01 0.01 0.00 0.00 0.00 0.00 0.01 0.02 0.02 0.03 0.03 0.03 0.03 0.04 0.05 0.05 0.05 0.06 0.06 0.07 0.08 0.09 0.12 0.16 0.15
0.09 0.10 0.07 0.06 0.05 0.04 0.05 0.07 0.06 0.06 0.05 0.05 0.04 0.03 0.02 0.02 0.01 0.01 0.01 0.01 0.01 0.01 0.01 0.02 0.03 0.03 0.03 0.03 0.03 0.04 0.05 0.06 0.07 0.08 0.08 0.08 0.08 0.08 0.08 0.09 0.11 0.16 0.23
0.13 0.13 0.08 0.06 0.06 0.05 0.06 0.07 0.08 0.08 0.07 0.06 0.04 0.03 0.02 0.01 0.01 0.01 0.01 0.01 0.01 0.02 0.03 0.03 0.03 0.03 0.02 0.03 0.04 0.06 0.07 0.07 0.06 0.07 0.07 0.07 0.07 0.09 0.09 0.09 0.11 0.12 0.18
0.13 0.10 0.07 0.06 0.06 0.06 0.07 0.08 0.10 0.10 0.09 0.06 0.04 0.02 0.02 0.01 0.01 0.01 0.01 0.02 0.02 0.03 0.03 0.04 0.03 0.03 0.03 0.04 0.06 0.06 0.06 0.06 0.06 0.06 0.07 0.07 0.07 0.08 0.07 0.08 0.09 0.11 0.16
0.14 0.09 0.06 0.06 0.07 0.08 0.09 0.10 0.12 0.11 0.08 0.05 0.02 0.01 0.01 0.01 0.01 0.02 0.02 0.02 0.03 0.04 0.04 0.03 0.03 0.03 0.04 0.06 0.06 0.06 0.05 0.06 0.06 0.06 0.07 0.07 0.08 0.07 0.06 0.08 0.10 0.12 0.16
0.15 0.10 0.10 0.10 0.11 0.11 0.12 0.11 0.10 0.08 0.05 0.03 0.02 0.02 0.02 0.02 0.02 0.03 0.03 0.03 0.04 0.04 0.03 0.03 0.03 0.04 0.05 0.04 0.03 0.03 0.03 0.04 0.04 0.05 0.07 0.08 0.08 0.09 0.11 0.12 0.13 0.16 0.18
0.19 0.20 0.20 0.18 0.15 0.12 0.11 0.10 0.10 0.08 0.06 0.04 0.03 0.03 0.02 0.02 0.03 0.04 0.04 0.03 0.03 0.03 0.03 0.03 0.03 0.03 0.03 0.01 0.00 0.00 0.01 0.01 0.02 0.04 0.07 0.08 0.08 0.12 0.13 0.13 0.14 0.18 0.21
0.35 0.34 0.26 0.20 0.14 0.13 0.13 0.13 0.12 0.09 0.07 0.05 0.04 0.03 0.02 0.02 0.03 0.03 0.03 0.03 0.04 0.03 0.03 0.02 0.01 0.01 0.01 0.00 0.00 0.00 0.00 0.01 0.02 0.05 0.06 0.04 0.04 0.05 0.05 0.08 0.13 0.18 0.22
0.36 0.29 0.21 0.16 0.16 0.18 0.19 0.18 0.16 0.13 0.11 0.08 0.05 0.04 0.03 0.03 0.03 0.02 0.02 0.03 0.02 0.02 0.02 0.01 0.01 0.01 0.01 0.00 0.00 0.00 0.00 0.02 0.04 0.07 0.06 0.04 0.03 0.04 0.07 0.09 0.12 0.15 0.21
0.23 0.20 0.17 0.19 0.22 0.25 0.24 0.22 0.18 0.14 0.10 0.09 0.06 0.04 0.03 0.03 0.02 0.02 0.02 0.02 0.02 0.02 0.02 0.02 0.01 0.02 0.01 0.00 0.00 0.00 0.01 0.02 0.04 0.05 0.05 0.06 0.06 0.07 0.09 0.11 0.15 0.16 0.18
0.18 0.18 0.22 0.28 0.32 0.30 0.26 0.21 0.17 0.12 0.09 0.07 0.05 0.03 0.02 0.02 0.02 0.02 0.02 0.02 0.02 0.02 0.01 0.01 0.01 0.02 0.02 0.00 0.00 0.00 0.01 0.02 0.02 0.03 0.04 0.06 0.06 0.08 0.09 0.14 0.19 0.21 0.27
0.15 0.24 0.32 0.36 0.35 0.30 0.23 0.18 0.12 0.08 0.06 0.03 0.02 0.01 0.01 0.01 0.01 0.01 0.02 0.02 0.02 0.01 0.01 0.01 0.02 0.03 0.03 0.01 0.00 0.01 0.02 0.02 0.02 0.02 0.02 0.04 0.07 0.08 0.11 0.16 0.23 0.31 0.40
0.23 0.30 0.34 0.34 0.28 0.20 0.14 0.10 0.07 0.05 0.03 0.02 0.01 0.01 0.01 0.00 0.01 0.01 0.01 0.02 0.01 0.01 0.01 0.02 0.02 0.03 0.02 0.02 0.00 0.01 0.02 0.03 0.04 0.04 0.05 0.08 0.13 0.12 0.14 0.22 0.32 0.46 0.56
0.30 0.33 0.32 0.28 0.20 0.12 0.08 0.06 0.05 0.03 0.01 0.01 0.01 0.01 0.01 0.00 0.00 0.01 0.01 0.01 0.01 0.01 0.01 0.01 0.02 0.02 0.03 0.02 0.01 0.00 0.01 0.03 0.05 0.09 0.11 0.16 0.20 0.18 0.22 0.33 0.49 0.63 0.72
0.33 0.30 0.25 0.18 0.11 0.06 0.04 0.03 0.02 0.01 0.01 0.01 0.01 0.01 0.00 0.00 0.00 0.00 0.00 0.01 0.01 0.01 0.01 0.01 0.02 0.02 0.02 0.03 0.01 0.01 0.01 0.03 0.06 0.13 0.23 0.27 0.25 0.30 0.39 0.55 0.69 0.75 0.73
0.22 0.16 0.10 0.07 0.04 0.02 0.01 0.01 0.00 0.00 0.00 0.01 0.01 0.01 0.01 0.00 0.00 0.00 0.00 0.01 0.01 0.01 0.02 0.02 0.03 0.04 0.04 0.04 0.03 0.03 0.04 0.05 0.07 0.11 0.23 0.34 0.37 0.47 0.61 0.71 0.74 0.74 0.76
0.08 0.05 0.04 0.03 0.02 0.01 0.00 0.00 0.00 0.00 0.00 0.00 0.00 0.01 0.01 0.01 0.01 0.00 0.00 0.01 0.01 0.01 0.02 0.03 0.04 0.07 0.07 0.05 0.04 0.06 0.07 0.09 0.12 0.14 0.19 0.23 0.31 0.46 0.60 0.68 0.70 0.68 0.69
0.04 0.04 0.03 0.01 0.01 0.00 0.00 0.00 0.00 0.00 0.00 0.01 0.01 0.01 0.00 0.00 0.00 0.01 0.01 0.01 0.00 0.00 0.01 0.02 0.04 0.05 0.06 0.04 0.03 0.04 0.07 0.10 0.15 0.17 0.24 0.33 0.40 0.50 0.60 0.67 0.71 0.67 0.60

GEFSMW_prec_meanprecacc_036.txt.gz
Total_Precipitation_Accumulation
0.02 0.06 0.16 0.36 0.52 0.89 1.08 0.78 0.46 0.28 0.17 0.15 0.14 0.12 0.11 0.11 0.10 0.09 0.08 0.11 0.14 0.14 0.13 0.10 0.11 0.10 0.10 0.09 0.07 0.07 0.07 0.07 0.05 0.05 0.03 0.02 0.02 0.01 0.01 0.01 0.01 0.01 0.01
0.02 0.05 0.12 0.27 0.43 0.58 0.62 0.60 0.54 0.49 0.33 0.26 0.26 0.26 0.24 0.21 0.20 0.22 0.28 0.30 0.25 0.18 0.14 0.12 0.08 0.08 0.07 0.06 0.06 0.05 0.03 0.03 0.02 0.03 0.02 0.01 0.00 0.00 0.00 0.00 0.00 0.00 0.00
0.02 0.04 0.11 0.24 0.37 0.44 0.51 0.57 0.59 0.60 0.47 0.39 0.38 0.38 0.38 0.37 0.38 0.42 0.45 0.39 0.29 0.19 0.13 0.09 0.07 0.05 0.03 0.03 0.03 0.03 0.04 0.03 0.01 0.01 0.02 0.02 0.01 0.00 0.00 0.00 0.00 0.00 0.00
0.02 0.03 0.08 0.16 0.30 0.42 0.49 0.52 0.60 0.65 0.64 0.60 0.53 0.51 0.50 0.48 0.47 0.39 0.35 0.27 0.19 0.13 0.09 0.06 0.05 0.03 0.02 0.02 0.01 0.02 0.02 0.02 0.01 0.00 0.01 0.01 0.02 0.02 0.01 0.00 0.00 0.00 0.00
0.02 0.04 0.07 0.14 0.29 0.41 0.47 0.57 0.63 0.65 0.67 0.65 0.62 0.58 0.46 0.36 0.30 0.24 0.19 0.16 0.13 0.10 0.06 0.05 0.04 0.03 0.02 0.01 0.01 0.01 0.01 0.01 0.01 0.01 0.01 0.01 0.01 0.02 0.03 0.02 0.01 0.00 0.00
0.02 0.04 0.07 0.15 0.25 0.34 0.44 0.53 0.58 0.59 0.59 0.59 0.54 0.41 0.35 0.32 0.28 0.23 0.18 0.14 0.10 0.07 0.06 0.04 0.03 0.02 0.01 0.01 0.01 0.01 0.01 0.01 0.02 0.01 0.01 0.02 0.02 0.02 0.03 0.03 0.02 0.01 0.00
0.03 0.05 0.10 0.14 0.20 0.27 0.37 0.44 0.46 0.44 0.41 0.34 0.28 0.26 0.26 0.24 0.19 0.15 0.11 0.08 0.06 0.04 0.03 0.02 0.01 0.01 0.01 0.01 0.01 0.01 0.01 0.01 0.02 0.02 0.02 0.02 0.02 0.03 0.04 0.06 0.05 0.03 0.01
0.04 0.07 0.11 0.15 0.22 0.27 0.30 0.31 0.28 0.23 0.18 0.15 0.16 0.16 0.15 0.13 0.11 0.09 0.06 0.04 0.02 0.02 0.01 0.01 0.01 0.01 0.01 0.01 0.01 0.01 0.01 0.02 0.03 0.03 0.04 0.04 0.04 0.05 0.07 0.10 0.12 0.11 0.06
0.07 0.11 0.15 0.19 0.23 0.21 0.20 0.17 0.15 0.12 0.10 0.09 0.09 0.07 0.07 0.07 0.07 0.06 0.04 0.03 0.02 0.01 0.01 0.01 0.01 0.02 0.02 0.03 0.03 0.03 0.03 0.04 0.05 0.05 0.05 0.06 0.06 0.07 0.08 0.10 0.13 0.17 0.15
0.14 0.17 0.18 0.18 0.16 0.14 0.13 0.12 0.11 0.09 0.08 0.07 0.05 0.05 0.05 0.04 0.05 0.04 0.03 0.03 0.02 0.02 0.02 0.02 0.03 0.03 0.03 0.03 0.03 0.04 0.05 0.06 0.07 0.08 0.08 0.08 0.08 0.08 0.09 0.09 0.11 0.17 0.24
0.20 0.21 0.18 0.15 0.13 0.12 0.12 0.10 0.10 0.09 0.08 0.07 0.06 0.05 0.05 0.04 0.04 0.03 0.03 0.02 0.02 0.02 0.03 0.03 0.03 0.03 0.02 0.03 0.04 0.06 0.07 0.07 0.07 0.07 0.07 0.07 0.08 0.09 0.09 0.10 0.11 0.13 0.19
0.27 0.26 0.21 0.16 0.14 0.12 0.11 0.11 0.12 0.11 0.10 0.08 0.06 0.05 0.04 0.04 0.03 0.03 0.03 0.03 0.03 0.03 0.03 0.04 0.03 0.03 0.03 0.04 0.06 0.06 0.06 0.07 0.07 0.07 0.07 0.07 0.07 0.08 0.07 0.08 0.09 0.11 0.16
0.39 0.33 0.24 0.16 0.12 0.11 0.11 0.11 0.13 0.12 0.09 0.06 0.04 0.03 0.02 0.02 0.02 0.03 0.03 0.03 0.03 0.04 0.04 0.04 0.04 0.04 0.05 0.06 0.06 0.06 0.06 0.06 0.06 0.06 0.07 0.08 0.08 0.07 0.06 0.08 0.10 0.12 0.16
0.35 0.26 0.20 0.16 0.14 0.13 0.13 0.12 0.11 0.09 0.06 0.04 0.03 0.03 0.02 0.03 0.03 0.04 0.04 0.04 0.05 0.05 0.05 0.04 0.04 0.05 0.06 0.05 0.03 0.03 0.03 0.04 0.04 0.05 0.07 0.08 0.09 0.09 0.11 0.12 0.13 0.16 0.19
0.29 0.29 0.26 0.23 0.18 0.14 0.12 0.11 0.10 0.09 0.07 0.05 0.04 0.04 0.04 0.04 0.05 0.06 0.06 0.06 0.06 0.05 0.05 0.05 0.05 0.04 0.03 0.01 0.00 0.00 0.01 0.01 0.02 0.04 0.07 0.08 0.09 0.13 0.15 0.14 0.16 0.20 0.23
0.43 0.41 0.32 0.23 0.17 0.15 0.15 0.14 0.13 0.11 0.09 0.08 0.08 0.07 0.06 0.06 0.07 0.07 0.07 0.07 0.07 0.06 0.04 0.03 0.02 0.02 0.01 0.00 0.00 0.00 0.00 0.01 0.02 0.05 0.06 0.04 0.04 0.05 0.06 0.10 0.16 0.22 0.26
0.39 0.32 0.24 0.18 0.18 0.20 0.21 0.21 0.20 0.18 0.16 0.14 0.12 0.10 0.09 0.09 0.09 0.07 0.06 0.05 0.04 0.03 0.02 0.02 0.01 0.01 0.01 0.00 0.00 0.00 0.00 0.02 0.04 0.07 0.06 0.04 0.03 0.05 0.07 0.10 0.14 0.17 0.23
0.24 0.21 0.19 0.20 0.24 0.28 0.28 0.27 0.24 0.21 0.18 0.17 0.15 0.13 0.11 0.10 0.08 0.06 0.05 0.03 0.02 0.02 0.02 0.02 0.01 0.02 0.01 0.00 0.00 0.00 0.01 0.02 0.04 0.05 0.06 0.07 0.06 0.07 0.10 0.11 0.16 0.17 0.19
0.19 0.19 0.23 0.29 0.34 0.34 0.31 0.27 0.25 0.22 0.20 0.17 0.13 0.10 0.07 0.06 0.05 0.04 0.03 0.02 0.02 0.02 0.01 0.01 0.02 0.02 0.03 0.00 0.00 0.00 0.01 0.02 0.02 0.03 0.04 0.06 0.07 0.08 0.11 0.15 0.21 0.22 0.28
0.16 0.24 0.33 0.38 0.39 0.35 0.28 0.24 0.20 0.16 0.13 0.09 0.06 0.04 0.03 0.02 0.02 0.02 0.02 0.02 0.02 0.01 0.01 0.01 0.02 0.03 0.04 0.01 0.00 0.01 0.02 0.02 0.02 0.02 0.02 0.05 0.08 0.09 0.13 0.17 0.25 0.33 0.42
0.24 0.31 0.35 0.36 0.31 0.23 0.17 0.14 0.11 0.08 0.05 0.03 0.02 0.01 0.01 0.01 0.01 0.01 0.01 0.02 0.01 0.01 0.01 0.02 0.02 0.03 0.03 0.02 0.00 0.01 0.02 0.03 0.04 0.04 0.05 0.08 0.14 0.14 0.15 0.23 0.33 0.49 0.59
0.31 0.34 0.34 0.29 0.21 0.14 0.09 0.08 0.06 0.03 0.02 0.01 0.01 0.01 0.01 0.00 0.00 0.01 0.01 0.01 0.01 0.01 0.01 0.01 0.02 0.02 0.03 0.02 0.01 0.00 0.01 0.03 0.05 0.10 0.13 0.17 0.22 0.19 0.24 0.34 0.50 0.66 0.75
0.35 0.31 0.25 0.19 0.12 0.07 0.05 0.04 0.02 0.01 0.01 0.01 0.01 0.01 0.01 0.00 0.00 0.00 0.00 0.01 0.01 0.01 0.01 0.02 0.02 0.02 0.03 0.03 0.01 0.01 0.01 0.04 0.07 0.14 0.25 0.29 0.27 0.32 0.41 0.57 0.71 0.77 0.75
0.24 0.17 0.11 0.07 0.04 0.03 0.02 0.01 0.01 0.00 0.01 0.01 0.01 0.01 0.01 0.01 0.00 0.00 0.00 0.01 0.01 0.01 0.02 0.02 0.03 0.04 0.04 0.04 0.03 0.03 0.04 0.06 0.08 0.12 0.25 0.35 0.38 0.49 0.63 0.73 0.76 0.76 0.78
0.09 0.06 0.05 0.03 0.02 0.01 0.01 0.00 0.00 0.01 0.01 0.01 0.01 0.01 0.01 0.01 0.01 0.00 0.00 0.01 0.01 0.01 0.02 0.03 0.04 0.07 0.07 0.05 0.05 0.06 0.08 0.10 0.13 0.16 0.19 0.24 0.32 0.48 0.62 0.70 0.72 0.70 0.71
0.05 0.04 0.03 0.01 0.01 0.00 0.00 0.00 0.00 0.00 0.01 0.01 0.01 0.01 0.00 0.00 0.00 0.01 0.01 0.01 0.00 0.00 0.01 0.02 0.04 0.05 0.06 0.04 0.03 0.05 0.08 0.11 0.17 0.18 0.25 0.34 0.42 0.52 0.63 0.70 0.74 0.70 0.63

GEFSMW_prec_meanprecacc_042.txt.gz
Total_Precipitation_Accumulation
0.02 0.06 0.16 0.36 0.52 0.89 1.09 0.79 0.48 0.31 0.24 0.28 0.33 0.39 0.41 0.41 0.38 0.37 0.37 0.38 0.37 0.34 0.29 0.26 0.26 0.23 0.21 0.17 0.13 0.11 0.10 0.09 0.06 0.05 0.03 0.02 0.02 0.01 0.01 0.01 0.01 0.01 0.01
0.02 0.05 0.12 0.27 0.43 0.58 0.62 0.61 0.55 0.53 0.43 0.45 0.53 0.62 0.68 0.66 0.68 0.75 0.82 0.79 0.64 0.49 0.42 0.35 0.26 0.21 0.16 0.13 0.11 0.09 0.06 0.04 0.03 0.03 0.02 0.01 0.00 0.00 0.00 0.00 0.00 0.00 0.00
0.02 0.04 0.11 0.24 0.37 0.45 0.51 0.58 0.61 0.66 0.65 0.71 0.77 0.86 0.99 1.07 1.11 1.13 1.09 0.96 0.74 0.55 0.45 0.36 0.27 0.19 0.14 0.12 0.10 0.08 0.07 0.04 0.02 0.01 0.02 0.02 0.01 0.00 0.00 0.00 0.00 0.00 0.00
0.02 0.03 0.08 0.16 0.30 0.42 0.50 0.54 0.64 0.77 0.89 0.97 1.00 1.15 1.33 1.35 1.26 1.02 0.85 0.72 0.59 0.49 0.40 0.32 0.26 0.21 0.18 0.13 0.07 0.04 0.04 0.03 0.01 0.01 0.01 0.01 0.02 0.02 0.01 0.00 0.00 0.00 0.00
0.02 0.04 0.07 0.14 0.29 0.42 0.49 0.61 0.72 0.87 1.03 1.19 1.30 1.45 1.45 1.22 0.97 0.76 0.63 0.55 0.46 0.40 0.34 0.30 0.27 0.23 0.15 0.08 0.03 0.02 0.02 0.01 0.01 0.01 0.01 0.01 0.01 0.02 0.03 0.02 0.01 0.00 0.00
0.03 0.04 0.08 0.16 0.26 0.36 0.49 0.62 0.77 0.92 1.09 1.28 1.41 1.39 1.27 1.08 0.85 0.67 0.57 0.51 0.42 0.35 0.30 0.25 0.19 0.12 0.07 0.04 0.02 0.02 0.01 0.01 0.02 0.01 0.01 0.02 0.02 0.02 0.03 0.03 0.02 0.01 0.00
0.04 0.06 0.11 0.15 0.22 0.32 0.45 0.58 0.67 0.84 1.00 1.14 1.24 1.19 1.03 0.82 0.60 0.48 0.41 0.36 0.30 0.25 0.18 0.12 0.08 0.05 0.03 0.02 0.01 0.01 0.01 0.01 0.02 0.02 0.02 0.02 0.02 0.03 0.04 0.06 0.05 0.03 0.01
0.05 0.08 0.13 0.18 0.26 0.34 0.43 0.51 0.59 0.71 0.83 0.86 0.83 0.69 0.53 0.44 0.38 0.34 0.29 0.23 0.17 0.12 0.08 0.06 0.04 0.03 0.02 0.02 0.02 0.01 0.01 0.02 0.03 0.03 0.04 0.04 0.04 0.05 0.07 0.10 0.12 0.11 0.06
0.09 0.14 0.18 0.23 0.28 0.32 0.37 0.39 0.41 0.45 0.45 0.39 0.34 0.28 0.22 0.20 0.20 0.17 0.13 0.09 0.07 0.06 0.04 0.03 0.03 0.02 0.03 0.03 0.03 0.03 0.03 0.04 0.05 0.05 0.05 0.06 0.06 0.07 0.08 0.10 0.13 0.17 0.16
0.16 0.20 0.21 0.23 0.21 0.21 0.22 0.22 0.20 0.20 0.18 0.15 0.13 0.12 0.11 0.09 0.08 0.07 0.07 0.06 0.05 0.04 0.04 0.04 0.04 0.03 0.03 0.03 0.04 0.04 0.05 0.06 0.07 0.08 0.08 0.08 0.08 0.08 0.09 0.09 0.11 0.17 0.24
0.23 0.24 0.21 0.18 0.16 0.15 0.14 0.12 0.12 0.11 0.11 0.10 0.08 0.08 0.07 0.05 0.05 0.04 0.04 0.04 0.03 0.03 0.04 0.04 0.04 0.03 0.03 0.03 0.05 0.06 0.07 0.07 0.07 0.07 0.08 0.07 0.08 0.09 0.09 0.10 0.11 0.13 0.19
0.29 0.28 0.23 0.18 0.16 0.13 0.12 0.11 0.12 0.12 0.10 0.08 0.07 0.05 0.04 0.04 0.04 0.03 0.03 0.03 0.04 0.04 0.04 0.04 0.04 0.03 0.03 0.05 0.06 0.07 0.06 0.07 0.07 0.07 0.07 0.07 0.07 0.08 0.07 0.08 0.09 0.11 0.16
0.41 0.35 0.25 0.17 0.13 0.12 0.11 0.11 0.13 0.12 0.09 0.06 0.04 0.03 0.03 0.03 0.03 0.03 0.04 0.04 0.04 0.05 0.05 0.04 0.04 0.05 0.05 0.07 0.06 0.06 0.06 0.06 0.06 0.06 0.07 0.08 0.08 0.07 0.06 0.08 0.10 0.12 0.16
0.36 0.27 0.20 0.17 0.15 0.13 0.13 0.12 0.11 0.09 0.07 0.04 0.03 0.03 0.03 0.04 0.04 0.05 0.05 0.05 0.06 0.06 0.06 0.06 0.05 0.06 0.06 0.05 0.04 0.03 0.03 0.04 0.04 0.05 0.07 0.08 0.09 0.09 0.11 0.12 0.13 0.17 0.19
0.30 0.29 0.27 0.23 0.18 0.14 0.12 0.11 0.10 0.09 0.07 0.06 0.05 0.06 0.05 0.06 0.07 0.08 0.09 0.09 0.09 0.08 0.07 0.07 0.06 0.05 0.04 0.02 0.00 0.00 0.01 0.01 0.02 0.04 0.07 0.08 0.09 0.13 0.15 0.15 0.16 0.21 0.24
0.44 0.42 0.32 0.24 0.17 0.15 0.15 0.14 0.13 0.11 0.09 0.09 0.10 0.10 0.10 0.11 0.12 0.12 0.12 0.11 0.10 0.08 0.06 0.04 0.02 0.02 0.01 0.00 0.00 0.00 0.00 0.01 0.02 0.05 0.06 0.04 0.04 0.05 0.06 0.11 0.17 0.24 0.29
0.39 0.33 0.24 0.19 0.18 0.20 0.21 0.21 0.21 0.19 0.18 0.18 0.17 0.15 0.15 0.15 0.14 0.12 0.10 0.08 0.06 0.04 0.03 0.02 0.01 0.01 0.01 0.00 0.00 0.00 0.00 0.02 0.04 0.07 0.06 0.04 0.03 0.05 0.08 0.11 0.14 0.18 0.24
0.24 0.21 0.19 0.21 0.25 0.28 0.29 0.28 0.26 0.23 0.21 0.21 0.20 0.18 0.16 0.15 0.12 0.09 0.07 0.05 0.03 0.03 0.02 0.02 0.01 0.02 0.01 0.00 0.00 0.00 0.01 0.02 0.04 0.05 0.06 0.07 0.06 0.07 0.11 0.12 0.16 0.17 0.19
0.19 0.19 0.23 0.30 0.35 0.35 0.32 0.29 0.28 0.25 0.23 0.21 0.17 0.13 0.10 0.07 0.06 0.04 0.03 0.02 0.02 0.02 0.01 0.01 0.02 0.02 0.03 0.00 0.00 0.00 0.01 0.02 0.02 0.03 0.04 0.06 0.07 0.09 0.12 0.16 0.22 0.23 0.29
0.16 0.25 0.34 0.39 0.40 0.36 0.30 0.27 0.24 0.20 0.16 0.11 0.07 0.05 0.03 0.02 0.02 0.02 0.02 0.02 0.02 0.01 0.01 0.01 0.02 0.03 0.04 0.01 0.00 0.01 0.02 0.02 0.02 0.02 0.02 0.05 0.08 0.10 0.14 0.18 0.27 0.34 0.43
0.24 0.32 0.36 0.37 0.33 0.25 0.19 0.16 0.13 0.10 0.06 0.04 0.02 0.01 0.01 0.01 0.01 0.01 0.01 0.02 0.01 0.01 0.01 0.02 0.02 0.03 0.03 0.02 0.00 0.01 0.02 0.04 0.04 0.04 0.06 0.09 0.14 0.14 0.16 0.24 0.35 0.51 0.61
0.32 0.35 0.35 0.30 0.23 0.15 0.10 0.08 0.06 0.03 0.02 0.01 0.01 0.01 0.01 0.00 0.00 0.01 0.01 0.01 0.01 0.01 0.01 0.01 0.02 0.02 0.03 0.02 0.01 0.00 0.01 0.03 0.06 0.11 0.13 0.18 0.22 0.20 0.24 0.35 0.51 0.67 0.77
0.36 0.32 0.26 0.20 0.12 0.07 0.05 0.04 0.02 0.01 0.01 0.01 0.01 0.01 0.01 0.00 0.00 0.00 0.00 0.01 0.01 0.01 0.01 0.02 0.02 0.02 0.03 0.03 0.01 0.01 0.02 0.04 0.08 0.16 0.26 0.29 0.28 0.33 0.41 0.57 0.73 0.79 0.77
0.24 0.17 0.11 0.08 0.05 0.03 0.02 0.01 0.01 0.00 0.01 0.01 0.01 0.02 0.01 0.01 0.00 0.00 0.00 0.01 0.01 0.01 0.02 0.02 0.03 0.04 0.04 0.04 0.03 0.03 0.04 0.06 0.08 0.13 0.26 0.36 0.39 0.50 0.64 0.74 0.78 0.78 0.81
0.09 0.06 0.05 0.03 0.02 0.01 0.01 0.00 0.00 0.01 0.01 0.01 0.01 0.01 0.01 0.01 0.01 0.00 0.00 0.01 0.01 0.01 0.02 0.03 0.04 0.07 0.08 0.05 0.05 0.07 0.08 0.10 0.14 0.16 0.20 0.24 0.33 0.49 0.63 0.72 0.74 0.73 0.74
0.05 0.04 0.03 0.01 0.01 0.00 0.00 0.00 0.00 0.00 0.01 0.01 0.01 0.01 0.00 0.00 0.00 0.01 0.01 0.01 0.00 0.00 0.01 0.02 0.04 0.05 0.07 0.05 0.04 0.06 0.09 0.13 0.18 0.19 0.25 0.34 0.43 0.54 0.65 0.72 0.77 0.73 0.66

GEFSMW_prec_meanprecacc_048.txt.gz
Total_Precipitation_Accumulation
0.02 0.06 0.16 0.36 0.52 0.89 1.09 0.80 0.48 0.33 0.26 0.32 0.40 0.51 0.59 0.66 0.67 0.65 0.67 0.71 0.75 0.74 0.69 0.66 0.65 0.59 0.55 0.49 0.41 0.35 0.30 0.25 0.19 0.13 0.08 0.05 0.03 0.02 0.02 0.01 0.01 0.01 0.01
0.02 0.05 0.12 0.27 0.43 0.58 0.62 0.62 0.56 0.55 0.46 0.54 0.68 0.87 1.01 1.06 1.09 1.18 1.31 1.38 1.29 1.13 1.03 0.93 0.76 0.65 0.56 0.50 0.42 0.35 0.26 0.18 0.12 0.09 0.07 0.04 0.02 0.01 0.01 0.01 0.01 0.00 0.00
0.02 0.04 0.11 0.24 0.37 0.45 0.52 0.58 0.63 0.70 0.71 0.84 0.99 1.19 1.38 1.53 1.65 1.72 1.72 1.61 1.41 1.25 1.10 0.93 0.79 0.68 0.62 0.58 0.50 0.38 0.28 0.18 0.10 0.06 0.06 0.05 0.03 0.01 0.01 0.00 0.00 0.00 0.00
0.02 0.03 0.08 0.16 0.30 0.43 0.50 0.55 0.67 0.82 0.97 1.12 1.25 1.48 1.72 1.83 1.83 1.63 1.47 1.28 1.10 0.95 0.81 0.73 0.69 0.67 0.63 0.56 0.44 0.32 0.22 0.15 0.08 0.05 0.04 0.03 0.03 0.03 0.02 0.00 0.00 0.00 0.00
0.02 0.04 0.07 0.15 0.29 0.42 0.50 0.62 0.76 0.92 1.13 1.35 1.52 1.71 1.78 1.65 1.44 1.25 1.06 0.97 0.86 0.74 0.66 0.62 0.60 0.55 0.45 0.34 0.25 0.19 0.14 0.08 0.05 0.03 0.03 0.02 0.02 0.02 0.03 0.02 0.01 0.00 0.00
0.03 0.05 0.09 0.16 0.27 0.37 0.51 0.64 0.80 0.97 1.17 1.41 1.58 1.61 1.57 1.45 1.24 1.02 0.88 0.80 0.68 0.56 0.47 0.39 0.32 0.26 0.20 0.15 0.10 0.06 0.04 0.03 0.03 0.03 0.02 0.03 0.03 0.03 0.03 0.04 0.02 0.01 0.00
0.05 0.07 0.12 0.16 0.23 0.33 0.46 0.59 0.69 0.89 1.07 1.24 1.41 1.40 1.28 1.09 0.84 0.69 0.61 0.52 0.42 0.35 0.27 0.20 0.16 0.13 0.09 0.06 0.04 0.03 0.03 0.02 0.03 0.03 0.03 0.03 0.03 0.03 0.04 0.06 0.05 0.03 0.01
0.07 0.10 0.15 0.19 0.28 0.36 0.45 0.53 0.62 0.75 0.88 0.94 0.94 0.80 0.64 0.54 0.46 0.40 0.34 0.26 0.20 0.16 0.12 0.09 0.07 0.06 0.05 0.04 0.03 0.02 0.02 0.03 0.03 0.03 0.04 0.05 0.04 0.05 0.07 0.10 0.13 0.11 0.06
0.12 0.16 0.20 0.26 0.31 0.34 0.40 0.42 0.43 0.47 0.48 0.44 0.39 0.32 0.26 0.23 0.22 0.19 0.14 0.11 0.09 0.07 0.06 0.05 0.04 0.04 0.04 0.04 0.04 0.03 0.04 0.04 0.05 0.05 0.06 0.07 0.07 0.08 0.09 0.10 0.13 0.18 0.16
0.19 0.23 0.24 0.25 0.23 0.22 0.24 0.24 0.22 0.21 0.20 0.17 0.14 0.13 0.12 0.10 0.09 0.08 0.08 0.07 0.06 0.05 0.05 0.05 0.05 0.04 0.04 0.04 0.05 0.05 0.05 0.07 0.07 0.09 0.09 0.09 0.08 0.09 0.09 0.10 0.12 0.17 0.25
0.25 0.26 0.23 0.20 0.17 0.16 0.15 0.13 0.12 0.12 0.11 0.10 0.09 0.08 0.07 0.06 0.05 0.05 0.05 0.04 0.04 0.04 0.05 0.05 0.05 0.05 0.04 0.04 0.05 0.07 0.07 0.08 0.07 0.07 0.08 0.07 0.08 0.09 0.09 0.10 0.11 0.13 0.19
0.31 0.30 0.24 0.19 0.16 0.14 0.12 0.12 0.12 0.12 0.11 0.09 0.07 0.05 0.04 0.04 0.04 0.04 0.04 0.04 0.04 0.04 0.05 0.05 0.05 0.04 0.04 0.05 0.07 0.07 0.06 0.07 0.07 0.07 0.07 0.07 0.07 0.08 0.07 0.08 0.09 0.11 0.17
0.43 0.36 0.26 0.17 0.13 0.12 0.11 0.11 0.13 0.12 0.09 0.06 0.04 0.03 0.03 0.03 0.03 0.04 0.04 0.04 0.05 0.06 0.06 0.05 0.05 0.05 0.06 0.07 0.07 0.06 0.06 0.06 0.06 0.06 0.07 0.08 0.08 0.07 0.07 0.09 0.10 0.13 0.17
0.38 0.28 0.21 0.17 0.15 0.13 0.13 0.12 0.11 0.09 0.07 0.04 0.03 0.03 0.03 0.04 0.05 0.05 0.06 0.06 0.07 0.08 0.07 0.07 0.06 0.06 0.07 0.06 0.04 0.03 0.03 0.04 0.04 0.05 0.07 0.09 0.09 0.09 0.12 0.14 0.16 0.19 0.22
0.31 0.30 0.27 0.23 0.18 0.14 0.12 0.11 0.11 0.09 0.07 0.06 0.05 0.06 0.06 0.06 0.08 0.09 0.10 0.10 0.10 0.09 0.08 0.08 0.06 0.05 0.04 0.02 0.01 0.01 0.01 0.02 0.02 0.04 0.07 0.08 0.09 0.13 0.16 0.17 0.20 0.26 0.30
0.45 0.43 0.33 0.24 0.17 0.15 0.15 0.15 0.14 0.11 0.10 0.10 0.11 0.11 0.12 0.12 0.14 0.14 0.13 0.13 0.12 0.10 0.07 0.04 0.03 0.02 0.02 0.01 0.01 0.01 0.01 0.01 0.03 0.05 0.07 0.05 0.04 0.06 0.07 0.11 0.19 0.27 0.34
0.41 0.34 0.25 0.19 0.19 0.20 0.22 0.22 0.21 0.20 0.19 0.19 0.18 0.17 0.17 0.17 0.17 0.14 0.12 0.10 0.07 0.05 0.04 0.03 0.02 0.02 0.02 0.00 0.00 0.00 0.00 0.02 0.05 0.08 0.07 0.05 0.04 0.06 0.10 0.12 0.15 0.19 0.26
0.27 0.23 0.20 0.22 0.26 0.29 0.30 0.29 0.26 0.24 0.22 0.23 0.22 0.21 0.18 0.17 0.13 0.10 0.08 0.05 0.04 0.03 0.03 0.02 0.02 0.02 0.02 0.00 0.00 0.00 0.01 0.03 0.05 0.06 0.07 0.09 0.09 0.10 0.12 0.13 0.18 0.20 0.23
0.21 0.21 0.25 0.31 0.36 0.37 0.34 0.30 0.29 0.27 0.25 0.24 0.19 0.15 0.11 0.08 0.06 0.05 0.03 0.03 0.02 0.02 0.02 0.02 0.02 0.03 0.04 0.01 0.00 0.00 0.02 0.02 0.03 0.04 0.05 0.08 0.10 0.10 0.12 0.17 0.25 0.26 0.32
0.17 0.26 0.34 0.40 0.41 0.37 0.31 0.28 0.26 0.22 0.18 0.13 0.09 0.06 0.04 0.03 0.02 0.02 0.02 0.02 0.02 0.02 0.01 0.02 0.03 0.04 0.05 0.01 0.00 0.01 0.02 0.03 0.03 0.03 0.04 0.07 0.09 0.10 0.14 0.20 0.30 0.39 0.47
0.25 0.32 0.37 0.38 0.34 0.27 0.20 0.17 0.14 0.11 0.08 0.05 0.03 0.02 0.01 0.01 0.01 0.01 0.02 0.02 0.02 0.02 0.02 0.02 0.03 0.04 0.04 0.02 0.00 0.01 0.03 0.04 0.05 0.06 0.07 0.11 0.14 0.14 0.16 0.25 0.38 0.55 0.63
0.33 0.36 0.36 0.31 0.23 0.16 0.12 0.09 0.07 0.04 0.03 0.03 0.02 0.02 0.01 0.01 0.00 0.01 0.02 0.02 0.02 0.02 0.02 0.02 0.03 0.03 0.04 0.03 0.01 0.00 0.01 0.03 0.07 0.13 0.16 0.20 0.23 0.20 0.25 0.36 0.53 0.69 0.80
0.36 0.32 0.27 0.21 0.13 0.08 0.05 0.05 0.03 0.02 0.02 0.03 0.02 0.02 0.01 0.01 0.01 0.01 0.02 0.02 0.02 0.02 0.02 0.02 0.03 0.03 0.04 0.04 0.01 0.01 0.02 0.04 0.08 0.17 0.27 0.30 0.28 0.33 0.44 0.59 0.74 0.82 0.83
0.25 0.18 0.12 0.08 0.05 0.03 0.02 0.02 0.01 0.01 0.02 0.03 0.02 0.03 0.02 0.01 0.01 0.01 0.01 0.02 0.02 0.02 0.03 0.04 0.04 0.05 0.06 0.05 0.04 0.04 0.04 0.06 0.09 0.14 0.28 0.37 0.40 0.52 0.67 0.77 0.82 0.84 0.87
0.09 0.07 0.05 0.03 0.02 0.01 0.01 0.01 0.01 0.02 0.02 0.02 0.02 0.02 0.02 0.02 0.02 0.02 0.01 0.02 0.03 0.01 0.02 0.04 0.06 0.09 0.09 0.06 0.06 0.08 0.09 0.11 0.15 0.17 0.22 0.27 0.35 0.51 0.65 0.75 0.78 0.78 0.80
0.05 0.05 0.03 0.02 0.01 0.00 0.00 0.00 0.00 0.01 0.01 0.02 0.02 0.01 0.01 0.01 0.01 0.02 0.03 0.01 0.00 0.00 0.01 0.03 0.05 0.06 0.07 0.06 0.04 0.06 0.10 0.14 0.19 0.20 0.27 0.36 0.45 0.56 0.67 0.75 0.80 0.77 0.72

GEFSMW_prec_meanprecacc_054.txt.gz
Total_Precipitation_Accumulation
0.02 0.06 0.17 0.36 0.53 0.90 1.10 0.81 0.50 0.35 0.28 0.34 0.42 0.53 0.63 0.71 0.72 0.71 0.72 0.77 0.81 0.82 0.79 0.77 0.77 0.72 0.68 0.64 0.57 0.51 0.46 0.42 0.35 0.28 0.20 0.13 0.08 0.07 0.05 0.04 0.03 0.02 0.02
0.02 0.05 0.15 0.28 0.43 0.59 0.63 0.63 0.59 0.59 0.51 0.59 0.73 0.93 1.11 1.17 1.20 1.30 1.42 1.50 1.41 1.24 1.13 1.02 0.86 0.75 0.68 0.64 0.58 0.52 0.46 0.38 0.29 0.24 0.21 0.14 0.08 0.04 0.03 0.03 0.02 0.01 0.01
0.02 0.04 0.15 0.27 0.37 0.45 0.53 0.60 0.67 0.76 0.77 0.91 1.08 1.30 1.51 1.68 1.78 1.84 1.83 1.72 1.52 1.36 1.21 1.02 0.88 0.78 0.71 0.69 0.64 0.54 0.46 0.36 0.25 0.19 0.17 0.15 0.09 0.04 0.02 0.02 0.01 0.01 0.01
0.02 0.04 0.11 0.21 0.31 0.43 0.52 0.58 0.72 0.88 1.06 1.24 1.39 1.62 1.87 2.00 1.96 1.73 1.56 1.36 1.17 1.02 0.88 0.79 0.75 0.73 0.70 0.64 0.52 0.40 0.32 0.25 0.17 0.12 0.09 0.08 0.06 0.06 0.04 0.01 0.01 0.01 0.00
0.03 0.04 0.07 0.16 0.30 0.44 0.53 0.66 0.82 0.99 1.24 1.50 1.70 1.88 1.95 1.83 1.60 1.36 1.13 1.02 0.91 0.78 0.69 0.64 0.62 0.58 0.48 0.38 0.28 0.22 0.18 0.13 0.09 0.06 0.05 0.04 0.04 0.04 0.05 0.03 0.01 0.01 0.00
0.03 0.05 0.09 0.17 0.28 0.39 0.53 0.69 0.86 1.05 1.29 1.55 1.76 1.80 1.74 1.60 1.37 1.11 0.95 0.85 0.72 0.59 0.49 0.40 0.33 0.27 0.21 0.16 0.11 0.08 0.06 0.05 0.05 0.05 0.04 0.05 0.05 0.05 0.06 0.06 0.04 0.02 0.01
0.05 0.08 0.12 0.17 0.25 0.35 0.49 0.63 0.73 0.94 1.14 1.34 1.55 1.56 1.44 1.23 0.96 0.80 0.70 0.59 0.46 0.37 0.28 0.21 0.16 0.13 0.10 0.07 0.05 0.04 0.04 0.04 0.05 0.05 0.05 0.04 0.04 0.05 0.06 0.08 0.06 0.05 0.02
0.08 0.11 0.16 0.21 0.30 0.38 0.48 0.56 0.66 0.80 0.95 1.04 1.06 0.94 0.78 0.66 0.58 0.51 0.40 0.30 0.22 0.16 0.12 0.09 0.07 0.06 0.05 0.04 0.03 0.03 0.03 0.04 0.04 0.04 0.05 0.06 0.05 0.06 0.08 0.11 0.14 0.12 0.07
0.13 0.18 0.23 0.28 0.34 0.37 0.44 0.46 0.47 0.53 0.55 0.52 0.48 0.42 0.36 0.31 0.28 0.23 0.16 0.12 0.10 0.08 0.06 0.05 0.05 0.04 0.04 0.04 0.04 0.04 0.04 0.05 0.06 0.06 0.06 0.07 0.07 0.08 0.09 0.10 0.14 0.18 0.17
0.21 0.25 0.26 0.28 0.26 0.25 0.27 0.27 0.25 0.25 0.24 0.22 0.19 0.18 0.16 0.14 0.11 0.10 0.09 0.08 0.06 0.06 0.05 0.05 0.05 0.05 0.04 0.04 0.05 0.05 0.06 0.07 0.08 0.09 0.09 0.09 0.09 0.09 0.09 0.10 0.12 0.18 0.25
0.27 0.28 0.25 0.22 0.20 0.18 0.17 0.16 0.15 0.14 0.14 0.12 0.10 0.10 0.09 0.07 0.07 0.06 0.05 0.05 0.05 0.05 0.05 0.05 0.05 0.05 0.04 0.04 0.06 0.07 0.08 0.08 0.07 0.07 0.08 0.08 0.08 0.10 0.09 0.10 0.11 0.13 0.19
0.32 0.32 0.26 0.20 0.17 0.15 0.13 0.13 0.14 0.13 0.11 0.10 0.08 0.07 0.06 0.05 0.05 0.04 0.04 0.04 0.05 0.05 0.05 0.05 0.05 0.04 0.04 0.05 0.07 0.07 0.06 0.07 0.07 0.07 0.07 0.07 0.08 0.08 0.08 0.09 0.10 0.12 0.17
0.44 0.38 0.27 0.18 0.14 0.13 0.12 0.12 0.14 0.13 0.10 0.07 0.05 0.04 0.04 0.04 0.04 0.04 0.04 0.04 0.05 0.06 0.06 0.05 0.05 0.05 0.06 0.07 0.07 0.06 0.06 0.06 0.06 0.07 0.07 0.08 0.09 0.08 0.08 0.10 0.12 0.14 0.18
0.39 0.29 0.22 0.18 0.16 0.15 0.14 0.13 0.11 0.09 0.07 0.05 0.04 0.04 0.04 0.04 0.05 0.06 0.06 0.06 0.07 0.08 0.08 0.07 0.06 0.06 0.07 0.06 0.04 0.03 0.03 0.04 0.04 0.05 0.08 0.09 0.10 0.11 0.14 0.15 0.17 0.22 0.25
0.33 0.31 0.29 0.25 0.19 0.15 0.13 0.11 0.11 0.09 0.07 0.06 0.06 0.06 0.06 0.07 0.08 0.10 0.10 0.10 0.10 0.09 0.09 0.08 0.07 0.05 0.04 0.02 0.01 0.01 0.01 0.02 0.03 0.05 0.08 0.09 0.10 0.14 0.17 0.17 0.20 0.27 0.32
0.48 0.45 0.35 0.26 0.19 0.17 0.17 0.16 0.15 0.13 0.11 0.10 0.11 0.12 0.12 0.13 0.14 0.14 0.14 0.14 0.12 0.11 0.07 0.05 0.03 0.03 0.02 0.01 0.01 0.01 0.01 0.02 0.04 0.07 0.08 0.06 0.06 0.07 0.08 0.12 0.19 0.28 0.36
0.47 0.40 0.31 0.25 0.24 0.25 0.25 0.25 0.23 0.21 0.20 0.19 0.18 0.18 0.17 0.17 0.17 0.15 0.13 0.11 0.09 0.06 0.05 0.04 0.03 0.03 0.03 0.00 0.00 0.00 0.00 0.03 0.06 0.10 0.09 0.06 0.05 0.09 0.13 0.14 0.16 0.21 0.29
0.40 0.37 0.32 0.30 0.32 0.33 0.32 0.30 0.27 0.24 0.23 0.23 0.22 0.21 0.19 0.17 0.14 0.11 0.09 0.07 0.05 0.05 0.04 0.03 0.03 0.04 0.03 0.00 0.00 0.00 0.01 0.04 0.07 0.08 0.09 0.11 0.13 0.13 0.13 0.13 0.18 0.23 0.29
0.30 0.29 0.30 0.35 0.39 0.38 0.35 0.31 0.29 0.27 0.26 0.24 0.20 0.16 0.12 0.09 0.07 0.06 0.05 0.04 0.04 0.04 0.03 0.02 0.03 0.05 0.05 0.01 0.00 0.00 0.02 0.03 0.04 0.05 0.08 0.10 0.13 0.12 0.12 0.17 0.26 0.29 0.37
0.21 0.28 0.36 0.41 0.42 0.38 0.32 0.29 0.27 0.23 0.19 0.14 0.10 0.07 0.04 0.04 0.03 0.03 0.03 0.04 0.04 0.03 0.03 0.03 0.04 0.06 0.07 0.02 0.00 0.01 0.02 0.04 0.04 0.05 0.07 0.09 0.10 0.11 0.14 0.20 0.32 0.43 0.51
0.26 0.33 0.38 0.39 0.35 0.28 0.22 0.19 0.16 0.13 0.10 0.07 0.04 0.03 0.02 0.01 0.02 0.02 0.04 0.05 0.05 0.05 0.04 0.05 0.05 0.06 0.05 0.03 0.00 0.01 0.03 0.05 0.06 0.07 0.11 0.15 0.15 0.14 0.16 0.25 0.40 0.58 0.64
0.34 0.37 0.37 0.33 0.25 0.18 0.15 0.13 0.11 0.07 0.05 0.05 0.04 0.03 0.02 0.01 0.01 0.04 0.06 0.06 0.07 0.06 0.05 0.05 0.05 0.05 0.05 0.04 0.01 0.00 0.01 0.03 0.08 0.16 0.19 0.23 0.23 0.20 0.25 0.37 0.54 0.69 0.82
0.37 0.34 0.28 0.22 0.15 0.10 0.09 0.08 0.06 0.04 0.04 0.06 0.05 0.03 0.03 0.02 0.02 0.05 0.07 0.07 0.08 0.06 0.05 0.05 0.05 0.05 0.06 0.06 0.02 0.01 0.02 0.04 0.09 0.20 0.28 0.30 0.28 0.34 0.47 0.62 0.75 0.85 0.90
0.26 0.19 0.14 0.10 0.06 0.04 0.03 0.03 0.03 0.02 0.04 0.05 0.04 0.04 0.04 0.05 0.05 0.06 0.06 0.07 0.07 0.05 0.04 0.06 0.06 0.07 0.08 0.07 0.05 0.04 0.05 0.07 0.09 0.16 0.29 0.39 0.42 0.54 0.71 0.82 0.88 0.92 0.94
0.11 0.08 0.06 0.04 0.02 0.01 0.01 0.01 0.01 0.02 0.04 0.04 0.03 0.04 0.04 0.04 0.07 0.07 0.04 0.03 0.04 0.01 0.03 0.05 0.06 0.10 0.11 0.07 0.06 0.08 0.09 0.11 0.15 0.17 0.24 0.32 0.41 0.56 0.71 0.81 0.84 0.86 0.87
0.06 0.06 0.04 0.02 0.01 0.00 0.00 0.00 0.00 0.01 0.03 0.06 0.05 0.03 0.02 0.03 0.04 0.07 0.08 0.03 0.01 0.00 0.01 0.03 0.05 0.06 0.08 0.06 0.05 0.06 0.10 0.14 0.19 0.22 0.31 0.41 0.48 0.59 0.70 0.79 0.85 0.83 0.78